Regional Weather Roundup
Issued by NWS

Home | Current Version | Previous Version | Text Only | Print | Product List | Glossary On
Versions: 1 2 3 4 5 6 7 8 9 10 11 12 13 14 15 16 17 18 19 20 21 22 23 24 25 26 27 28 29 30 31 32 33 34 35 36 37 38 39 40 41 42 43 44 45 46 47 48 49 50
000
ASUS46 KLOX 030812
RWRCA

SOUTHERN CALIFORNIA WEATHER ROUNDUP
NATIONAL WEATHER SERVICE OXNARD CALIFORNIA
100 AM PDT SUN MAY 03 2015

NOTE: "FAIR" INDICATES FEW OR NO CLOUDS BELOW 12,000 FEET WITH NO
SIGNIFICANT WEATHER AND/OR OBSTRUCTIONS TO VISIBILITY.

  -  STATIONS PRECEEDED BY AN ASTERISK (*) ARE NOT NWS OR FAA
     STATIONS AND ARE NOT SUBJECT TO NWS AND FAA QUALITY CONTROL.

CAZ041-042-087-030900-
LA AND ORANGE COUNTY COASTAL AREAS


CITY           SKY/WX    TMP DP  RH WIND       PRES   REMARKS
L.A. DOWNTOWN  PTCLDY    59  53  80 CALM      29.89F
L.A. AIRPORT   PTCLDY    58  53  84 S5        29.90S
LONG BEACH     CLOUDY    61  53  75 NE6       29.89S

CITY           SKY/WX    TMP DP  RH WIND       PRES   REMARKS
AVALON           N/A     54 N/A N/A MISG        N/A
FULLERTON      CLEAR     61  32  33 S3        29.89S
HAWTHORNE      CLEAR     61  53  75 NW5       29.90S
*LEO CARRILLO    N/A     56  52  85 N3          N/A
*LOS ALAMITOS  CLOUDY    61  57  88 SE2       29.89F
*REDONDO BEACH   N/A     58  52  80 CALM      29.89S
SANTA ANA      MOCLDY    61  55  81 SE5       29.89F
STA MONICA APT MOCLDY    59  53  80 CALM      29.90S
*STA MON PIER    N/A     58  55  87 SE2       29.89S
*UCLA            N/A     57  50  77 SE1       29.87S

$$

CAZ547-548-048-030900-
LA COUNTY VALLEYS AND INLAND EMPIRE


CITY           SKY/WX    TMP DP  RH WIND       PRES   REMARKS
BURBANK        CLEAR     59  50  72 SE9       29.89R
VAN NUYS       CLEAR     58  50  75 SE7       29.89R

CITY           SKY/WX    TMP DP  RH WIND       PRES   REMARKS
CORONA AIRPORT SUNNY     59  54  83 NW3       29.90S
*CHATSWORTH      N/A     60  48  64 E1        29.87S
CHINO          CLEAR     59  53  80 W6        29.91S
*CLAREMONT       N/A     51  49  91 CALM        N/A
MARCH AFB      CLEAR     57  52  83 E6        29.90R
*NORTHRIDGE      N/A     59  46  63 E2          N/A
ONTARIO        CLEAR     58  53  84 W7        29.90R
*PASADENA        N/A     59  55  88 CALM        N/A
RIVERSIDE      CLEAR     60  52  74 W5        29.90R
SAN BERNARDINO NOT AVBL
*SAN RAFAEL HI   N/A     52  43  70 SW5         N/A
*SAUGUS          N/A     62  37  40 CALM        N/A
*WHITEMAN AP   NOT AVBL
*WOODLAND HILL   N/A     59  50  72 NE2         N/A

$$

CAZ054-055-030900-
LA AND SAN BERNARDINO COUNTY MOUNTAINS


CITY           SKY/WX    TMP DP  RH WIND       PRES   REMARKS
*ACTON           N/A     54  30  39 CALM        N/A
*BIG BEAR AIRP SUNNY     39  23  52 CALM      30.08S
*BIG PINES       N/A     51  20  29 CALM        N/A
*CHILAO          N/A     55  26  33 W6          N/A
MT WILSON NWS    N/A     55  27  33 MISG        N/A
SANDBERG       CLEAR     60  27  28 NW13      29.98F
*WARM SPRINGS    N/A     59  29  32 W8          N/A

$$

CAZ028-029-059-060-099-030900-
ANTELOPE VALLEY AND SURROUNDING AREAS


CITY           SKY/WX    TMP DP  RH WIND       PRES   REMARKS
LANCASTER      CLEAR     62  32  32 SW12      29.88S
PALMDALE       CLEAR     66  29  24 SW14      29.89S
*POPPY PARK      N/A     65  30  27 W8          N/A

CITY           SKY/WX    TMP DP  RH WIND       PRES   REMARKS
29 PALMS       CLEAR     71  29  21 W9        29.89S
BARSTOW/DAGGET CLEAR     72  26  18 W14       29.83R
BISHOP         CLEAR     54  22  28 S5        29.89S
CHINA LAKE     CLEAR     65  22  19 S8        29.81S
EDWARDS AFB    CLEAR     61  30  30 SW9       29.85S
MOJAVE         FAIR      68  27  21 SW13G26   29.88S
NEEDLES        CLEAR     84  35  17 S15       29.74R
VICTORVILLE    CLEAR     61  30  31 CALM      29.91S

$$

CAZ039-040-030900-
VENTURA AND SANTA BARBARA COUNTY COAST


CITY           SKY/WX    TMP DP  RH WIND       PRES   REMARKS
CAMARILLO      MOCLDY    55  50  83 SE6       29.88R
OXNARD AIRPORT CLEAR     54  50  86 W5        29.88R
*POINT MUGU    CLEAR     57  51  80 CALM      29.89S
SBA APT/GOLETA CLEAR     51  48  89 CALM      29.86S
*SANTA BARBARA   N/A     57  50  77 CALM      29.94S
*VENTURA         N/A     55  50  83 NE3       29.47S

$$

CAZ044-045-030900-
VENTURA COUNTY VALLEYS


CITY           SKY/WX    TMP DP  RH WIND       PRES   REMARKS
*SIMI VALLEY     N/A     54  47  76 CALM      29.82R
*OJAI            N/A     49  40  73 CALM      29.81R
*FILLMORE        N/A     52  46  78 CALM      29.77S

$$

CAZ053-030900-
VENTURA COUNTY MOUNTAINS


CITY           SKY/WX    TMP DP  RH WIND       PRES   REMARKS
*LOCKWOOD VLY    N/A     41  25  52 MISG        N/A
*ROSE VALLEY     N/A     41  36  81 MISG        N/A

$$

CAZ034-035-036-030900-
CENTRAL COAST AND SANTA YNEZ VALLEY


CITY           SKY/WX    TMP DP  RH WIND       PRES   REMARKS
SAN LUIS OBISP PTCLDY    48  44  86 CALM      29.90F
SANTA MARIA    MOCLDY    51  46  83 CALM      29.91S HAZE

CITY           SKY/WX    TMP DP  RH WIND       PRES   REMARKS
*CAL POLY SLO    N/A     46  45  93 CALM        N/A
*LOMPOC        CLOUDY    52  43  71 CALM      29.91S
*PISMO BEACH     N/A     49  45  88 NE2       29.91S
*SANTA YNEZ    FAIR      46  45  93 CALM      29.89F

$$

CAZ037-038-051-030900-
SAN LUIS OBISPO COUNTY INTERIOR AND CUYAMA VALLEY


CITY           SKY/WX    TMP DP  RH WIND       PRES   REMARKS
*CUYAMA          N/A     61  29  30 SE3       29.79F
PASO ROBLES    CLEAR     47  41  80 NW3       29.89S

$$

CAZ032-033-061-030900-
SOUTHERN DESERTS


CITY           SKY/WX    TMP DP  RH WIND       PRES   REMARKS
BLYTHE         CLEAR     78  41  26 S6        29.74F
IMPERIAL       CLEAR     74  47  38 CALM      29.71F
PALM SPRINGS   CLEAR     78  34  20 S6        29.75R
THERMAL        CLEAR     75  35  23 VRB3      29.70S

$$

ELSEWHERE ACROSS THE WESTERN UNITED STATES AND MEXICO


CITY           SKY/WX    TMP DP  RH WIND       PRES   REMARKS
DENVER, CO     MOCLDY    52  39  61 SW17      29.94F
GRAND CANYON,  PTCLDY    38  29  70 NE8       30.10S WCI  32
HONOLULU, HI   PTCLDY    72  63  73 E17       30.06R
KAHULUI, MAUI  PTCLDY    72  64  78 E12G21    30.05S
LAKE TAHOE, CA CLEAR     41  33  73 CALM      30.04F
LAS VEGAS, NV  CLEAR     78  29  16 S14       29.75S
MAMMOTH LAKES, FAIR      41  21  45 CALM      30.06S
MEXICO CITY, M PTCLDY    59  50  72 N3        30.27F
PHOENIX, AZ    MOCLDY    84  38  19 W5        29.80R
PORTLAND, OR   CLEAR     53  43  68 N3        29.98R
RENO, NV       CLEAR     59  37  44 W7        29.96F
SALT LAKE CITY MOCLDY    62  40  44 S6        29.87S
SAN DIEGO, CA  CLOUDY    64  55  72 S6        29.92S
SAN FRANCISCO, PTCLDY    53  46  77 W3        29.89S
SAN JOSE, CA   CLEAR     55  47  74 SE6       29.88F
SEATTLE, WA    CLEAR     50  38  63 N6        30.02R
TIJUANA, MEX   CLEAR     61  52  72 CALM      29.92

$$

STATION/POSITION TIME  TEMP    WIND        PRES    VSBY  WAVE
                       AIR SEA DIR/SP/G                  HT/PER
                 (UTC) (F)     (DEG/KT/KT) (MB)    (MI)  (FT/S)
POINT ARGUELLO B NOT AVBL
WEST SANTA BARBA 0800   56 57  300/ 14/ 17 1011.5R         6/10
POINT CONCEPTION NOT AVBL
EAST SANTA BARBA NOT AVBL
SANTA MONICA BAY 0800   58 63  340/  8/ 10 1012.1R         4/ 6


USA.gov is the U.S. government's official web portal to all federal, state and local government web resources and services.